Temp
8 8 8 8 8 8 8 8 8 8 8 7 8 8 8 8 8 8 8 8 8 9 9 9 9 9 9 8 8 8 8 8 8 8 8 8 8 7 7 7 8 8 8 8 8 8 8 9 9 9 9 9 9 10 10 10 10 10 10 10 11 11 11 10 10 10 10 10 11
8 8 8 8 8 8 8 8 8 7 7 7 7 8 8 8 8 8 8 8 8 8 8 8 9 9 9 8 8 8 8 8 8 8 8 8 8 8 7 7 7 8 8 8 8 8 8 8 9 9 9 9 9 9 9 10 10 10 10 10 10 10 10 10 10 10 10 10 10
8 8 8 8 8 8 8 8 8 7 7 7 7 7 7 8 8 8 8 8 8 8 8 8 8 8 8 8 9 8 8 8 8 8 8 8 8 8 8 8 7 7 8 8 8 8 8 8 8 8 9 9 9 9 9 9 10 10 10 10 10 10 10 10 10 10 10 10 10
8 8 8 8 8 8 8 8 8 7 7 7 7 7 7 7 8 8 8 8 8 8 8 8 8 8 8 8 8 8 8 8 8 8 8 8 8 8 8 8 8 8 7 7 8 8 8 8 8 8 8 9 9 9 9 9 9 9 9 10 10 10 10 10 10 10 10 10 10
8 8 8 8 8 8 8 8 7 7 7 7 7 7 7 7 7 7 7 8 8 8 8 8 8 8 8 8 8 8 8 8 8 8 8 8 8 8 8 8 8 8 8 7 7 8 8 8 8 8 8 8 8 9 9 9 9 9 9 9 9 9 10 10 10 10 10 10 10
8 8 8 8 8 8 8 7 7 7 7 7 7 7 7 7 7 7 7 7 8 8 8 8 8 8 8 8 8 8 8 8 8 8 8 8 8 8 8 8 8 8 8 8 7 7 8 8 8 8 8 8 8 8 8 9 9 9 9 9 9 9 9 9 10 10 10 10 10
8 8 8 8 8 7 7 7 7 7 7 7 7 7 7 7 7 7 7 7 7 7 8 8 8 8 8 8 8 8 8 8 8 8 8 8 8 8 8 8 8 8 8 8 7 7 7 7 8 8 8 8 8 8 8 8 9 9 9 9 9 9 9 9 9 9 10 10 10
8 8 8 8 8 7 7 7 7 7 7 7 7 7 6 6 6 7 7 7 7 7 7 8 8 8 8 8 8 8 8 8 8 8 8 8 8 8 8 8 8 8 8 8 8 7 7 7 7 8 8 8 8 8 8 8 8 9 9 9 9 9 9 9 9 9 9 9 10
8 8 8 8 7 7 7 7 7 7 7 7 7 7 6 6 6 6 7 7 7 7 7 7 8 8 8 8 8 8 8 8 8 8 8 8 8 8 8 8 8 8 8 8 8 7 7 7 7 7 8 8 8 8 8 8 8 8 8 9 9 9 9 9 9 9 9 9 9
8 8 8 7 7 7 7 7 7 7 7 7 7 7 6 6 6 6 6 6 7 7 7 7 7 7 8 8 8 8 8 8 8 8 8 8 8 8 8 8 8 8 8 8 8 7 7 7 7 7 7 7 8 8 8 8 8 8 8 8 9 9 9 9 9 8 8 8 9
8 8 8 8 7 7 7 7 7 7 7 7 7 7 7 6 6 6 6 6 6 7 7 7 7 7 7 7 7 8 8 8 8 8 8 8 8 8 8 8 8 8 8 8 8 7 7 7 7 7 7 7 7 7 8 8 8 8 8 8 8 8 9 9 9 8 8 8 8
8 8 8 8 7 7 7 7 7 7 7 7 7 7 7 7 6 6 6 6 6 6 7 7 7 7 7 7 7 7 7 8 8 8 8 8 8 8 8 8 8 8 8 8 7 7 7 7 7 7 7 7 7 7 7 7 8 8 8 8 8 8 8 8 8 8 8 8 8
8 8 8 8 7 7 7 7 7 7 7 7 7 7 7 7 7 7 6 6 6 6 6 7 7 7 7 7 7 7 7 7 8 8 8 8 8 8 8 8 8 8 8 7 7 7 7 7 7 7 7 7 7 7 7 7 7 7 8 8 8 8 8 8 8 8 8 8 8
8 8 8 8 7 7 7 7 7 7 7 7 7 7 7 7 7 7 7 6 6 6 6 6 7 7 7 7 7 7 7 7 7 7 8 8 8 8 8 8 8 8 7 7 7 7 7 7 7 7 7 7 7 7 7 7 7 7 7 7 7 8 8 8 8 8 8 8 8
8 8 8 8 7 7 7 7 7 7 7 7 7 7 7 7 7 7 7 6 6 6 6 6 6 6 7 7 7 7 7 7 7 7 7 8 8 8 8 8 8 8 7 7 7 7 7 7 7 7 7 7 6 6 6 7 7 7 7 7 7 7 8 8 8 8 8 8 8
8 8 8 8 7 7 7 7 7 7 7 7 7 7 7 7 6 6 6 6 6 6 6 6 6 6 6 7 7 7 7 7 7 7 7 7 7 7 8 8 8 8 7 7 7 7 7 7 7 7 7 7 7 6 6 6 7 7 7 7 7 7 7 7 7 8 8 8 8
8 8 8 7 7 7 7 7 7 7 7 7 7 7 7 6 6 6 6 6 6 6 6 6 6 6 6 6 6 7 7 7 7 7 7 7 7 7 7 7 8 8 7 7 7 7 7 7 7 7 7 7 7 6 6 6 6 6 7 7 7 7 7 7 7 7 7 7 8
8 8 8 7 7 7 7 7 7 7 7 7 6 6 6 6 6 6 6 6 6 6 6 6 6 6 6 6 6 6 6 7 7 7 7 7 7 7 7 7 7 7 7 7 7 7 7 7 7 6 6 6 6 6 6 6 6 6 6 6 7 7 7 7 7 7 7 7 7
8 8 8 7 7 7 7 7 7 7 6 6 6 6 6 6 6 6 6 6 6 6 6 6 6 6 6 6 6 6 6 6 7 7 7 7 7 7 7 7 7 7 7 7 7 7 7 7 7 6 6 6 6 6 6 6 6 6 6 6 6 6 7 7 7 7 7 7 7
8 8 7 7 7 7 7 7 7 6 6 6 6 6 6 6 6 6 6 6 6 6 6 6 6 6 6 6 6 6 6 6 6 6 7 7 7 7 7 7 7 7 7 7 7 7 7 7 7 6 6 6 6 6 6 6 6 6 6 6 6 6 6 7 7 7 7 7 7
7 7 7 7 7 7 7 7 6 6 6 6 6 6 6 6 6 6 6 6 6 6 6 6 6 6 6 6 6 6 6 6 6 6 6 6 7 7 7 7 7 7 7 7 7 7 7 7 7 6 6 6 6 6 6 6 6 6 6 6 6 6 6 6 6 7 7 7 6
7 7 7 7 7 7 7 6 6 6 6 6 6 6 6 6 6 6 6 6 6 6 6 6 6 6 6 6 6 6 5 6 6 6 6 6 6 7 7 7 7 7 7 7 7 7 7 7 7 6 6 6 6 6 6 5 5 5 5 6 6 6 6 6 6 6 6 6 6
6 6 6 7 7 6 6 6 6 6 6 6 6 6 6 6 6 6 6 6 6 6 6 6 6 6 6 6 6 6 5 5 6 6 6 6 6 6 6 7 7 7 7 7 7 7 7 7 7 7 6 6 6 6 6 5 5 5 5 5 5 6 6 6 6 6 6 6 6
6 6 6 6 6 6 6 6 6 6 6 6 6 6 6 6 6 6 6 6 6 6 6 6 6 6 6 6 6 6 6 5 5 6 6 6 6 6 6 6 6 7 7 7 7 7 7 7 7 7 6 6 6 6 6 5 5 5 5 5 5 5 5 6 6 6 6 6 6
6 6 6 6 6 6 6 6 6 6 6 6 6 6 6 6 6 6 6 6 6 6 6 6 6 6 6 6 6 6 6 5 5 5 5 6 6 6 6 6 6 6 6 7 7 7 7 7 7 7 6 6 6 6 6 6 5 5 5 5 5 5 5 5 5 6 6 6 6
5 5 5 5 5 6 6 6 6 6 6 6 6 6 6 6 6 6 6 6 6 6 6 6 6 6 6 6 6 6 6 6 5 5 5 5 6 6 6 6 6 6 6 6 6 7 7 7 7 7 6 6 6 6 6 5 5 5 5 4 4 5 5 5 5 5 5 6 6
5 5 5 5 5 5 5 5 5 6 6 6 6 6 6 6 5 5 5 5 5 5 5 6 6 6 6 6 6 6 6 6 5 5 5 5 5 5 6 6 6 6 6 6 6 6 7 7 7 7 7 6 6 6 5 5 5 5 5 4 4 4 4 5 5 5 5 5 5
4 5 5 5 5 5 5 5 5 5 5 5 6 6 5 5 5 5 5 5 5 5 5 5 5 5 6 6 6 6 6 6 5 5 5 5 5 5 5 6 6 6 6 6 6 6 6 6 6 6 7 7 6 6 5 5 5 5 4 4 4 4 4 4 4 5 5 5 5
4 4 4 5 5 5 5 5 5 5 5 5 5 5 5 5 5 5 5 5 5 5 5 5 5 5 5 6 6 6 6 6 5 5 5 5 5 5 5 5 6 6 6 6 6 6 6 6 6 6 6 6 6 6 6 5 5 5 4 4 4 4 4 4 4 4 4 4 5
4 4 4 4 4 4 4 4 4 5 5 5 5 5 5 5 5 5 5 5 5 5 5 5 5 5 5 5 5 6 6 6 5 5 5 5 5 5 5 5 5 5 6 6 6 6 6 6 6 6 6 6 6 6 6 6 5 5 4 4 4 4 3 4 4 4 4 4 4
4 4 4 4 4 4 4 4 4 4 4 5 5 5 5 5 5 5 5 5 4 4 4 4 5 5 5 5 5 5 5 5 5 5 5 5 5 5 5 5 5 5 5 5 6 6 6 6 6 6 6 6 6 6 6 6 6 5 4 4 4 4 3 3 3 4 4 4 4
4 4 4 4 4 4 4 4 4 4 4 4 4 5 5 5 4 4 4 4 4 4 4 4 4 4 4 5 5 5 5 5 5 5 5 5 5 4 4 4 5 5 5 5 5 5 6 6 6 6 6 6 6 6 6 6 6 5 5 4 4 4 3 3 3 3 3 4 4
3 3 4 4 4 4 4 4 4 3 3 4 4 4 4 4 4 4 4 4 4 4 4 4 4 4 4 4 5 5 5 5 5 5 5 5 5 4 4 4 4 4 5 5 5 5 5 5 5 5 5 5 6 6 6 6 6 6 5 5 4 4 4 3 3 3 3 3 4
3 3 3 3 3 3 3 3 3 3 3 3 4 4 4 4 4 4 4 4 4 4 4 4 4 4 4 4 4 5 5 5 5 5 5 5 4 4 4 4 4 4 4 5 5 5 5 5 5 5 5 5 5 6 6 6 6 6 6 5 4 4 4 3 3 3 3 3 3
2 3 3 3 3 3 3 3 3 3 3 3 3 4 4 4 4 4 3 3 3 3 3 4 4 4 4 4 4 4 4 5 5 5 5 5 4 4 4 4 4 4 4 4 4 5 5 5 5 5 5 5 5 5 6 6 6 6 6 5 5 4 4 4 3 3 3 3 3
2 2 3 3 3 3 3 3 3 3 4 3 3 3 3 3 3 3 3 3 3 3 3 3 3 3 4 4 4 4 4 4 5 5 5 5 4 4 4 4 4 4 4 4 4 4 4 5 5 5 4 4 5 5 6 6 6 6 6 6 5 5 4 4 4 3 3 3 3
1 2 2 3 3 3 4 4 4 4 3 3 3 3 3 3 3 3 3 3 3 3 3 3 3 3 3 3 4 4 4 4 4 4 5 5 4 4 4 4 4 4 4 4 4 4 4 4 4 4 4 4 5 5 5 5 6 6 6 6 6 5 5 4 4 4 3 3 3
1 2 2 3 3 3 3 3 3 3 3 3 3 3 3 3 3 3 3 3 3 3 3 3 3 3 3 3 3 3 4 4 4 4 4 4 4 4 4 4 4 4 3 3 3 4 4 4 4 4 4 4 4 5 5 5 5 5 5 6 6 6 5 5 4 4 3 3 3
1 2 2 2 2 2 2 3 3 3 3 3 3 3 3 3 3 3 3 3 3 3 3 3 3 3 3 3 3 3 3 4 4 4 4 4 4 4 4 4 3 3 3 3 3 3 3 4 4 4 4 4 4 5 5 5 5 5 5 5 6 6 6 6 5 4 4 3 3
1 1 1 1 2 2 2 2 2 2 2 2 2 2 2 2 3 3 3 3 3 3 3 3 3 3 3 3 3 3 3 3 3 4 4 4 4 4 4 3 3 3 3 3 3 3 3 3 3 3 3 4 4 4 5 5 4 4 5 5 5 6 6 6 5 5 4 4 3
0 0 1 1 1 1 1 2 2 2 2 2 2 2 2 2 2 2 2 2 2 3 3 3 3 3 3 3 3 3 3 3 3 3 3 4 4 4 4 3 3 3 3 3 3 3 3 3 3 3 3 3 4 4 4 4 4 4 4 5 5 5 6 6 6 5 5 4 3
Height
1461 1460 1459 1458 1457 1456 1456 1455 1454 1453 1453 1453 1452 1452 1451 1450 1450 1449 1448 1448 1447 1446 1445 1445 1444 1443 1442 1441 1440 1440 1439 1438 1438 1438 1437 1437 1436 1435 1435 1434 1433 1433 1433 1432 1432 1431 1431 1430 1429 1428 1428 1428 1428 1428 1428 1428 1429 1430 1430 1431 1431 1432 1432 1432 1433 1434 1435 1435 1436
1460 1460 1459 1458 1457 1456 1455 1454 1453 1453 1452 1452 1452 1451 1450 1450 1449 1449 1448 1447 1447 1446 1445 1445 1444 1443 1442 1441 1441 1440 1439 1439 1438 1438 1437 1437 1436 1436 1435 1435 1434 1433 1433 1433 1432 1432 1431 1430 1429 1429 1428 1428 1428 1428 1428 1428 1428 1429 1430 1431 1431 1431 1431 1432 1432 1433 1434 1435 1435
1460 1459 1458 1457 1456 1455 1454 1454 1453 1452 1452 1451 1451 1450 1450 1449 1449 1448 1448 1447 1447 1446 1445 1445 1444 1443 1443 1442 1441 1440 1439 1439 1438 1438 1437 1437 1436 1436 1435 1435 1434 1434 1433 1433 1432 1432 1431 1431 1430 1429 1429 1429 1428 1428 1428 1428 1428 1429 1429 1430 1430 1431 1431 1431 1431 1432 1432 1433 1434
1459 1458 1458 1457 1456 1455 1454 1453 1453 1452 1451 1451 1450 1450 1449 1449 1448 1448 1448 1447 1447 1446 1445 1445 1444 1443 1443 1442 1441 1440 1439 1439 1438 1438 1437 1436 1436 1435 1435 1434 1434 1433 1433 1433 1432 1432 1431 1431 1431 1430 1430 1429 1429 1429 1429 1429 1429 1429 1429 1429 1429 1430 1430 1430 1431 1431 1432 1432 1433
1458 1458 1457 1456 1455 1454 1453 1453 1452 1451 1451 1450 1449 1449 1449 1448 1448 1448 1447 1447 1446 1446 1445 1444 1444 1443 1443 1442 1441 1440 1439 1439 1438 1437 1437 1436 1436 1435 1435 1434 1434 1433 1433 1433 1432 1432 1431 1431 1431 1430 1430 1430 1429 1429 1429 1429 1429 1429 1429 1429 1429 1429 1429 1429 1430 1430 1431 1431 1432
1458 1457 1456 1456 1455 1454 1453 1452 1451 1451 1450 1449 1449 1448 1448 1448 1447 1447 1447 1446 1446 1445 1445 1444 1443 1443 1442 1442 1441 1440 1439 1439 1438 1437 1437 1436 1435 1435 1434 1434 1433 1433 1433 1432 1432 1432 1431 1431 1431 1431 1430 1430 1429 1429 1429 1429 1429 1429 1429 1429 1428 1428 1428 1428 1429 1429 1430 1430 1430
1457 1456 1456 1455 1454 1453 1453 1452 1451 1450 1450 1449 1448 1448 1448 1447 1447 1446 1446 1445 1445 1445 1444 1444 1443 1443 1442 1441 1441 1440 1439 1439 1438 1437 1437 1436 1435 1435 1434 1434 1433 1433 1432 1432 1432 1431 1431 1431 1431 1431 1430 1430 1430 1429 1429 1429 1428 1428 1428 1429 1428 1428 1428 1428 1428 1428 1428 1428 1429
1456 1456 1455 1454 1453 1453 1452 1451 1451 1450 1449 1448 1448 1447 1447 1446 1446 1446 1445 1445 1444 1444 1443 1443 1443 1442 1442 1441 1440 1440 1439 1439 1438 1437 1437 1436 1435 1434 1434 1433 1433 1433 1432 1432 1431 1431 1431 1431 1431 1430 1430 1430 1430 1429 1429 1429 1428 1428 1428 1428 1428 1428 1428 1427 1427 1427 1427 1427 1428
1455 1455 1454 1453 1453 1452 1451 1451 1450 1449 1449 1448 1448 1447 1446 1446 1445 1445 1444 1444 1444 1443 1443 1443 1442 1442 1441 1440 1440 1439 1439 1438 1438 1437 1437 1436 1435 1434 1434 1433 1433 1432 1432 1431 1431 1431 1430 1430 1430 1430 1430 1430 1430 1429 1429 1428 1428 1428 1428 1428 1428 1427 1427 1427 1427 1426 1426 1426 1426
1455 1454 1453 1453 1452 1451 1451 1450 1449 1449 1448 1448 1447 1446 1446 1445 1445 1444 1444 1443 1443 1443 1442 1442 1442 1441 1441 1440 1439 1439 1438 1438 1438 1437 1437 1436 1435 1434 1434 1433 1433 1432 1432 1431 1431 1430 1430 1430 1430 1429 1429 1429 1429 1429 1428 1428 1428 1428 1427 1427 1427 1427 1427 1426 1426 1426 1426 1425 1425
1454 1453 1453 1452 1451 1451 1450 1449 1449 1448 1448 1447 1447 1446 1445 1444 1444 1443 1443 1443 1443 1442 1442 1441 1441 1440 1440 1439 1439 1438 1438 1438 1437 1437 1436 1436 1435 1434 1433 1433 1433 1432 1432 1431 1431 1430 1430 1430 1429 1429 1429 1429 1429 1428 1428 1428 1428 1427 1427 1427 1426 1426 1426 1426 1425 1425 1425 1425 1425
1453 1452 1452 1451 1450 1450 1449 1449 1448 1448 1447 1447 1446 1445 1445 1444 1443 1443 1443 1442 1442 1442 1441 1441 1440 1440 1439 1439 1438 1438 1438 1437 1437 1436 1436 1435 1435 1434 1433 1433 1432 1432 1431 1431 1430 1430 1430 1429 1429 1429 1428 1428 1428 1428 1428 1428 1427 1427 1426 1426 1426 1426 1425 1425 1425 1424 1424 1424 1424
1452 1451 1451 1450 1449 1449 1448 1448 1447 1447 1446 1446 1445 1445 1444 1443 1443 1442 1442 1442 1441 1441 1440 1440 1440 1439 1439 1438 1438 1438 1437 1437 1436 1436 1435 1435 1434 1434 1433 1433 1432 1432 1431 1431 1430 1430 1429 1429 1428 1428 1428 1428 1428 1428 1428 1427 1427 1427 1426 1426 1425 1425 1425 1424 1424 1424 1423 1424 1424
1451 1451 1450 1449 1448 1448 1448 1447 1446 1446 1445 1445 1444 1444 1443 1443 1442 1442 1441 1441 1440 1440 1440 1439 1439 1439 1438 1438 1438 1437 1437 1436 1436 1435 1435 1434 1434 1433 1433 1432 1432 1431 1431 1430 1430 1429 1429 1428 1428 1428 1428 1427 1427 1427 1427 1427 1426 1426 1426 1425 1424 1424 1424 1424 1423 1423 1423 1423 1423
1450 1450 1449 1448 1448 1447 1447 1446 1445 1445 1444 1444 1444 1443 1443 1442 1441 1441 1440 1440 1440 1439 1439 1438 1438 1438 1438 1437 1437 1437 1436 1436 1435 1435 1434 1434 1433 1433 1433 1432 1431 1431 1430 1430 1429 1429 1428 1428 1428 1427 1427 1427 1426 1426 1426 1426 1426 1425 1425 1424 1424 1423 1423 1423 1423 1423 1423 1423 1422
1449 1449 1448 1448 1447 1446 1446 1445 1445 1444 1444 1443 1443 1442 1442 1441 1441 1440 1439 1439 1439 1438 1438 1438 1438 1437 1437 1436 1436 1436 1435 1435 1434 1434 1433 1433 1433 1433 1432 1432 1431 1430 1430 1429 1429 1428 1428 1428 1427 1427 1426 1426 1426 1425 1425 1425 1425 1424 1424 1424 1423 1423 1423 1422 1422 1422 1422 1422 1422
1448 1448 1447 1447 1446 1445 1445 1444 1444 1443 1443 1442 1442 1441 1441 1440 1440 1439 1439 1438 1438 1438 1437 1437 1436 1436 1436 1435 1435 1435 1435 1434 1434 1433 1433 1433 1432 1432 1432 1431 1430 1430 1429 1429 1428 1428 1428 1427 1427 1426 1426 1425 1425 1424 1424 1424 1424 1423 1423 1423 1423 1423 1422 1422 1422 1421 1421 1421 1421
1448 1447 1446 1446 1445 1445 1444 1443 1443 1443 1442 1442 1441 1441 1440 1439 1439 1438 1438 1437 1437 1437 1436 1436 1435 1435 1435 1434 1434 1434 1434 1433 1433 1433 1432 1432 1432 1431 1431 1430 1430 1429 1429 1428 1428 1427 1427 1427 1426 1426 1425 1425 1424 1424 1423 1423 1423 1423 1422 1422 1422 1422 1422 1421 1421 1421 1420 1420 1420
1447 1446 1445 1445 1444 1444 1443 1443 1442 1442 1441 1441 1440 1440 1439 1438 1438 1438 1437 1436 1436 1435 1435 1435 1434 1434 1434 1433 1433 1433 1433 1432 1432 1432 1432 1431 1431 1430 1430 1430 1429 1429 1428 1428 1427 1427 1426 1426 1426 1425 1425 1424 1424 1423 1423 1423 1422 1422 1421 1421 1421 1421 1421 1421 1420 1420 1420 1419 1419
1445 1445 1444 1444 1443 1443 1442 1442 1441 1441 1440 1440 1439 1439 1438 1438 1437 1437 1436 1436 1435 1434 1434 1434 1433 1433 1433 1433 1432 1432 1432 1431 1431 1431 1431 1430 1430 1430 1429 1429 1428 1428 1428 1427 1427 1426 1426 1425 1425 1425 1424 1424 1423 1423 1423 1422 1421 1421 1421 1420 1420 1420 1420 1420 1420 1419 1419 1419 1418
1443 1443 1443 1443 1442 1442 1441 1441 1440 1440 1439 1439 1438 1438 1437 1437 1436 1436 1435 1435 1434 1433 1433 1433 1432 1432 1432 1432 1431 1431 1430 1430 1430 1430 1429 1429 1429 1429 1428 1428 1428 1428 1427 1427 1426 1425 1425 1425 1424 1424 1424 1423 1423 1423 1422 1422 1421 1420 1420 1420 1419 1419 1419 1419 1419 1419 1419 1418 1418
1442 1442 1442 1441 1441 1440 1440 1440 1439 1439 1438 1438 1437 1437 1436 1436 1435 1434 1434 1433 1433 1433 1432 1432 1431 1431 1431 1430 1430 1430 1429 1429 1429 1428 1428 1428 1428 1428 1428 1427 1427 1427 1426 1426 1425 1425 1424 1424 1423 1423 1423 1423 1423 1422 1422 1421 1421 1420 1420 1419 1419 1418 1418 1418 1418 1418 1418 1418 1418
1441 1440 1440 1440 1440 1439 1439 1438 1438 1438 1437 1437 1436 1436 1435 1434 1434 1433 1433 1433 1432 1431 1431 1430 1430 1430 1429 1429 1428 1428 1428 1428 1428 1427 1427 1427 1427 1427 1426 1426 1426 1426 1425 1425 1425 1424 1423 1423 1423 1423 1422 1422 1422 1422 1421 1421 1420 1420 1419 1419 1418 1418 1418 1417 1417 1417 1417 1417 1417
1440 1439 1439 1439 1438 1438 1438 1438 1437 1437 1436 1436 1435 1435 1434 1433 1433 1432 1432 1431 1431 1430 1430 1429 1429 1428 1428 1428 1427 1427 1427 1427 1426 1426 1426 1426 1426 1426 1425 1425 1425 1424 1424 1424 1424 1423 1423 1422 1422 1422 1421 1421 1421 1421 1420 1420 1420 1419 1419 1418 1418 1418 1417 1417 1417 1416 1416 1416 1417
1439 1438 1438 1438 1437 1437 1437 1436 1436 1436 1435 1435 1434 1433 1433 1432 1432 1431 1430 1430 1429 1429 1428 1428 1428 1427 1427 1426 1426 1425 1425 1425 1425 1425 1425 1424 1424 1424 1424 1424 1424 1423 1423 1423 1423 1423 1422 1422 1421 1421 1420 1420 1420 1420 1419 1419 1419 1419 1418 1418 1418 1417 1417 1416 1416 1416 1416 1416 1416
1438 1437 1437 1437 1436 1436 1435 1435 1435 1434 1434 1433 1433 1433 1432 1431 1431 1430 1429 1428 1428 1428 1427 1427 1426 1426 1425 1425 1424 1424 1424 1423 1423 1423 1423 1423 1423 1423 1423 1423 1423 1422 1422 1422 1422 1422 1421 1421 1420 1420 1419 1419 1419 1419 1418 1418 1418 1418 1418 1417 1417 1417 1416 1416 1415 1415 1415 1415 1415
1436 1436 1435 1435 1435 1435 1434 1434 1433 1433 1433 1432 1432 1431 1431 1430 1429 1429 1428 1428 1427 1426 1425 1425 1425 1424 1424 1423 1423 1423 1422 1422 1422 1422 1422 1422 1421 1421 1421 1421 1421 1421 1421 1421 1421 1420 1420 1420 1419 1419 1418 1418 1418 1418 1418 1417 1417 1417 1417 1417 1416 1416 1416 1415 1415 1415 1414 1414 1414
1435 1434 1434 1434 1433 1433 1433 1433 1432 1432 1431 1431 1430 1430 1429 1429 1428 1428 1427 1426 1425 1425 1424 1423 1423 1423 1422 1422 1422 1421 1421 1420 1420 1420 1420 1420 1420 1420 1420 1420 1420 1420 1420 1420 1419 1419 1419 1419 1418 1418 1418 1417 1417 1417 1416 1416 1416 1416 1416 1416 1416 1415 1415 1415 1414 1414 1414 1414 1413
1433 1433 1433 1433 1432 1432 1431 1431 1431 1430 1430 1429 1429 1428 1428 1428 1427 1426 1426 1425 1424 1423 1423 1422 1422 1421 1421 1420 1420 1420 1419 1419 1418 1418 1418 1418 1418 1418 1418 1418 1418 1418 1418 1418 1418 1418 1418 1418 1418 1417 1417 1416 1416 1416 1415 1415 1415 1415 1415 1415 1415 1415 1414 1414 1414 1414 1413 1413 1413
1432 1432 1431 1431 1431 1430 1430 1429 1429 1428 1428 1428 1427 1427 1426 1426 1425 1425 1424 1423 1423 1422 1421 1421 1420 1420 1419 1419 1418 1418 1418 1417 1417 1417 1416 1416 1416 1416 1416 1416 1417 1417 1417 1417 1417 1417 1417 1417 1416 1416 1416 1415 1415 1414 1414 1414 1414 1414 1414 1414 1414 1414 1414 1414 1413 1413 1413 1413 1413
1431 1430 1430 1429 1429 1429 1428 1428 1427 1427 1426 1426 1426 1425 1425 1424 1424 1423 1423 1422 1421 1421 1420 1419 1419 1418 1418 1418 1417 1417 1416 1416 1415 1415 1415 1415 1415 1415 1415 1414 1415 1415 1415 1415 1416 1416 1416 1416 1415 1415 1415 1414 1414 1413 1413 1413 1413 1413 1413 1413 1413 1413 1413 1413 1413 1413 1413 1412 1412
1429 1429 1428 1428 1428 1427 1427 1426 1426 1425 1425 1424 1424 1423 1423 1423 1422 1422 1421 1420 1420 1419 1418 1418 1417 1417 1416 1416 1415 1415 1414 1414 1413 1413 1413 1413 1413 1413 1413 1413 1413 1413 1413 1413 1414 1414 1414 1414 1414 1414 1413 1413 1413 1412 1412 1412 1412 1412 1412 1412 1412 1412 1412 1412 1412 1412 1412 1412 1412
1428 1427 1427 1426 1426 1425 1425 1424 1424 1423 1423 1423 1422 1422 1422 1421 1421 1420 1419 1419 1418 1418 1417 1416 1416 1415 1414 1414 1413 1413 1413 1412 1412 1411 1411 1411 1411 1411 1411 1411 1411 1411 1412 1412 1412 1413 1413 1413 1413 1413 1413 1412 1412 1411 1411 1411 1410 1410 1410 1411 1411 1411 1411 1411 1411 1411 1411 1411 1411
1426 1426 1425 1425 1424 1423 1423 1423 1422 1422 1422 1421 1421 1420 1420 1419 1419 1418 1418 1417 1416 1416 1415 1414 1414 1413 1413 1413 1412 1411 1411 1411 1410 1410 1409 1409 1409 1409 1409 1409 1409 1409 1410 1410 1410 1411 1411 1412 1412 1412 1411 1411 1411 1410 1410 1410 1409 1409 1409 1409 1409 1409 1410 1410 1410 1410 1410 1410 1410
1425 1424 1423 1423 1423 1422 1421 1420 1420 1420 1420 1419 1419 1418 1418 1418 1417 1417 1416 1416 1415 1414 1413 1413 1412 1412 1411 1411 1410 1410 1409 1409 1408 1408 1408 1408 1408 1408 1408 1408 1408 1408 1408 1408 1408 1409 1409 1410 1410 1410 1410 1410 1409 1409 1409 1409 1408 1408 1408 1408 1408 1408 1408 1409 1409 1409 1410 1410 1410
1423 1423 1422 1421 1421 1420 1419 1418 1418 1418 1418 1417 1417 1416 1416 1415 1415 1415 1414 1414 1413 1412 1412 1411 1410 1410 1409 1409 1408 1408 1408 1407 1407 1406 1406 1406 1406 1406 1406 1406 1406 1406 1406 1406 1407 1407 1408 1408 1408 1409 1409 1408 1408 1408 1408 1408 1407 1407 1407 1407 1407 1407 1407 1407 1408 1408 1409 1409 1409
1421 1421 1420 1419 1418 1418 1417 1417 1416 1415 1415 1415 1414 1414 1414 1413 1413 1413 1412 1412 1411 1411 1410 1409 1409 1408 1408 1407 1407 1406 1406 1405 1405 1405 1404 1404 1404 1404 1404 1404 1404 1404 1404 1404 1404 1405 1406 1406 1407 1407 1407 1407 1407 1407 1407 1407 1406 1406 1406 1406 1406 1405 1405 1406 1406 1407 1408 1408 1408
1420 1419 1418 1417 1417 1416 1415 1414 1414 1413 1413 1412 1412 1412 1412 1411 1411 1411 1410 1410 1409 1409 1408 1408 1407 1406 1406 1405 1405 1404 1404 1403 1403 1403 1403 1402 1402 1402 1402 1402 1403 1403 1403 1403 1403 1403 1403 1404 1405 1405 1406 1405 1405 1405 1406 1406 1405 1405 1405 1405 1405 1404 1404 1404 1405 1405 1406 1407 1407
1418 1417 1416 1415 1414 1414 1413 1412 1412 1411 1410 1410 1410 1409 1409 1409 1409 1408 1408 1408 1407 1407 1406 1406 1405 1405 1404 1403 1403 1402 1402 1402 1401 1401 1401 1401 1400 1400 1400 1400 1401 1401 1401 1401 1401 1401 1401 1402 1403 1403 1404 1404 1404 1404 1404 1404 1404 1404 1404 1403 1403 1403 1403 1403 1403 1404 1404 1405 1406
1416 1415 1414 1413 1413 1412 1411 1410 1410 1409 1408 1408 1408 1407 1407 1407 1407 1406 1406 1406 1405 1405 1404 1404 1404 1403 1403 1402 1401 1400 1400 1400 1399 1399 1399 1399 1398 1398 1398 1398 1399 1399 1399 1399 1399 1399 1399 1400 1401 1401 1402 1402 1402 1403 1403 1403 1403 1403 1403 1403 1402 1403 1403 1403 1403 1403 1403 1403 1404
1415 1414 1413 1412 1411 1410 1409 1408 1408 1407 1407 1406 1405 1405 1405 1405 1404 1404 1404 1403 1403 1403 1403 1402 1402 1401 1401 1400 1399 1398 1398 1398 1398 1397 1397 1397 1397 1397 1397 1397 1397 1397 1397 1398 1397 1397 1397 1398 1398 1399 1400 1400 1400 1401 1401 1402 1402 1402 1402 1401 1401 1401 1402 1402 1402 1402 1402 1402 1403
Wind_Speed
16 15 15 15 15 15 15 15 15 15 14 13 12 12 12 12 13 13 13 13 13 13 13 14 14 15 15 16 15 15 14 13 12 12 11 10 9 8 8 7 7 8 8 9 9 8 7 6 6 7 7 7 5 3 2 4 8 13 18 23 27 29 30 30 29 28 28 29 30
15 15 15 15 15 15 15 15 15 15 15 14 13 12 12 12 12 13 13 13 13 13 13 13 13 14 14 15 15 15 14 14 13 12 12 11 10 9 8 7 7 7 7 7 8 8 8 7 5 5 5 6 6 5 3 1 5 9 14 20 25 29 31 31 31 30 30 30 30
15 15 15 15 15 15 15 16 15 15 15 15 14 13 13 12 12 12 13 13 13 13 12 12 12 13 13 14 15 15 15 14 14 13 12 11 11 10 9 8 7 7 6 6 7 7 8 7 6 5 4 4 5 5 4 2 1 4 8 14 20 26 30 32 33 33 32 31 31
15 15 15 15 15 15 15 15 16 16 15 15 14 14 13 13 12 12 12 13 13 13 12 12 12 12 12 13 14 14 15 15 14 13 13 12 11 11 10 9 8 7 7 6 6 6 7 7 6 5 4 3 3 3 4 3 2 0 3 7 12 18 25 30 34 35 35 34 33
15 15 15 15 15 15 15 15 16 16 16 15 15 14 14 13 13 13 12 12 13 13 12 12 12 11 12 12 13 13 14 14 15 14 14 13 12 11 10 10 9 8 7 7 6 6 6 6 7 6 5 4 2 2 2 3 2 2 1 2 4 9 15 22 29 34 36 37 36
15 15 15 15 15 15 15 15 16 16 16 15 15 15 14 14 13 13 13 13 13 13 12 12 12 11 11 11 12 12 13 14 14 15 14 14 13 12 11 10 10 9 8 8 7 6 6 6 6 6 6 5 3 2 2 1 2 2 2 3 3 3 6 11 18 25 31 35 37
14 14 15 15 15 15 15 15 16 16 16 16 15 15 14 14 14 14 13 13 13 13 12 12 11 11 11 11 11 11 12 13 14 14 14 14 14 13 12 11 10 10 9 9 8 7 7 6 6 6 6 6 5 4 2 2 1 1 2 3 3 4 4 4 6 12 20 26 32
14 14 14 15 15 15 15 15 15 16 16 16 15 15 15 14 14 14 14 14 14 13 13 12 12 11 11 11 11 11 11 12 13 14 14 14 14 14 13 11 11 10 9 9 9 8 8 8 7 7 7 7 6 5 4 3 2 1 2 3 4 5 5 5 5 5 7 14 22
14 14 14 14 14 15 15 15 15 15 16 16 16 15 15 15 14 14 14 14 14 14 14 13 13 12 11 11 11 11 11 11 12 13 13 14 14 14 13 12 11 10 10 9 9 9 9 9 9 8 8 8 7 7 5 4 3 2 2 2 4 5 6 6 6 6 6 6 9
14 14 14 14 14 14 14 14 15 15 15 15 16 16 15 15 15 15 15 15 15 15 15 14 14 13 12 11 11 11 11 11 11 12 13 14 14 14 14 13 12 11 10 10 9 9 9 9 10 10 9 9 8 8 7 6 4 3 3 3 3 4 6 7 7 7 7 8 7
14 14 14 14 14 14 14 14 14 14 15 15 15 16 16 16 16 15 15 15 15 16 16 16 15 14 13 12 12 12 11 11 11 12 12 13 14 14 15 14 13 12 11 10 10 10 10 10 10 10 10 10 9 9 8 7 6 5 4 4 4 4 5 6 8 8 8 8 9
13 14 14 14 13 13 13 13 13 14 14 14 15 16 16 17 17 16 16 16 16 16 16 16 16 15 14 13 13 12 12 12 12 12 12 12 13 14 14 15 14 13 12 11 10 10 10 10 10 10 10 10 10 10 10 9 8 7 6 5 4 4 5 5 6 7 9 9 8
13 13 13 13 13 13 13 13 13 13 13 14 14 15 16 17 17 17 17 16 16 16 17 17 17 16 16 15 14 13 13 13 12 12 12 12 13 13 14 15 15 14 13 12 11 11 10 10 10 10 11 11 11 11 10 10 9 8 7 6 5 5 5 5 5 5 7 8 8
13 13 13 13 13 13 12 12 12 12 13 13 14 15 16 17 17 17 18 18 17 17 17 17 17 18 17 16 15 15 14 14 13 13 12 12 12 13 14 14 15 15 14 13 12 11 11 11 11 11 11 11 11 11 11 11 10 10 9 8 7 6 6 6 6 5 5 6 7
12 12 12 13 13 13 12 12 12 12 12 13 14 14 15 16 17 18 18 18 18 17 17 17 18 18 18 18 17 16 15 15 14 14 13 13 13 13 13 14 14 15 15 14 13 12 11 11 11 11 11 11 12 11 11 11 11 11 10 10 9 8 7 7 7 6 5 5 6
12 12 12 12 12 12 12 12 12 12 12 13 13 14 15 16 17 17 18 19 19 18 18 18 18 18 19 19 18 17 17 16 15 15 14 14 13 13 13 14 14 15 15 15 14 13 12 12 11 11 12 12 12 12 12 11 11 11 10 10 10 9 9 8 7 7 6 5 5
13 12 12 12 12 12 12 12 12 12 12 13 13 14 15 15 16 17 18 18 19 19 19 19 18 18 19 19 19 19 18 17 16 16 15 15 14 14 14 14 14 15 15 16 15 14 13 12 12 12 12 12 12 13 13 12 12 11 11 10 10 10 10 9 8 8 7 6 6
13 12 12 12 12 12 12 13 13 13 13 13 13 14 14 15 16 17 18 18 19 19 20 20 19 19 19 19 19 20 19 19 18 17 16 16 15 14 14 14 14 15 15 16 16 15 14 13 13 12 12 12 12 12 13 13 13 12 12 11 11 11 10 10 9 9 8 7 6
13 12 12 12 12 12 13 13 13 13 13 13 13 14 14 15 15 16 17 18 19 19 20 20 20 20 19 19 19 20 20 20 19 18 17 17 16 15 15 15 15 15 15 16 16 16 16 15 14 13 12 12 12 12 12 13 13 13 13 12 12 11 11 11 10 10 9 8 7
12 12 12 12 12 12 13 13 13 14 14 14 14 14 14 15 15 16 17 18 18 19 20 20 21 20 20 19 19 20 20 21 20 20 19 18 17 16 16 15 15 15 15 15 16 16 16 16 15 14 13 12 12 11 11 12 13 13 14 13 13 12 12 11 11 11 10 9 8
11 11 11 12 12 12 13 13 14 14 14 14 15 15 15 15 15 15 16 17 18 18 19 20 21 21 21 20 20 20 20 21 21 21 20 19 18 17 17 16 16 16 15 16 16 16 17 16 16 15 14 13 12 11 11 11 11 12 13 13 13 13 13 12 12 11 11 11 10
10 10 11 11 12 12 13 13 14 14 15 15 15 16 16 16 16 16 16 16 17 18 18 19 20 21 21 21 21 20 20 21 21 22 21 20 19 18 18 17 17 16 16 16 16 16 17 17 17 16 15 14 13 12 11 11 11 11 12 12 13 13 13 13 12 12 12 11 11
9 9 10 10 11 12 12 13 14 14 15 16 16 17 17 17 17 16 16 17 17 17 18 18 19 20 21 22 22 21 21 21 21 22 22 22 21 20 19 18 17 17 17 16 16 16 17 17 17 17 16 15 14 13 12 11 10 10 11 11 12 12 13 13 13 13 12 12 12
9 9 9 10 11 11 12 13 14 15 15 16 17 17 18 18 18 18 18 17 17 17 17 18 19 20 21 22 22 22 21 21 21 22 22 22 22 21 20 19 18 18 17 17 16 16 17 17 17 17 17 16 15 14 13 12 11 10 10 10 10 11 12 12 13 13 13 12 12
10 10 10 11 11 12 13 13 14 15 16 16 17 18 18 19 19 19 19 19 18 18 18 18 18 19 20 21 22 22 22 22 21 21 22 23 23 22 21 20 19 19 18 18 17 17 17 17 17 18 18 17 16 15 14 13 12 11 10 10 10 10 10 11 11 12 12 12 12
11 11 12 12 13 13 14 14 15 15 16 17 17 18 19 19 20 20 20 20 20 20 19 19 19 19 20 21 22 22 23 22 22 21 21 22 23 23 22 22 21 20 19 18 18 17 17 17 17 18 18 18 17 16 15 14 13 12 11 10 10 9 10 10 10 10 11 11 12
12 13 13 14 14 15 15 16 16 17 17 17 18 18 19 20 20 20 21 21 21 21 21 20 20 20 20 20 21 22 23 23 22 22 21 22 23 23 23 23 22 21 20 20 19 18 18 17 17 18 18 18 18 17 16 15 14 12 11 11 10 10 9 9 9 9 10 10 11
14 14 15 15 16 17 17 17 18 18 18 18 19 19 19 20 20 21 21 22 22 22 22 22 21 21 20 21 21 22 23 23 23 23 22 22 22 23 24 24 23 22 21 21 20 19 18 18 18 18 18 18 18 18 17 16 15 14 12 11 11 10 10 9 9 9 9 9 9
15 16 16 17 18 18 19 19 19 19 20 20 20 20 20 20 20 21 21 22 22 23 23 23 23 22 22 22 22 22 23 24 24 24 23 22 22 23 23 24 24 23 22 22 21 20 19 19 18 18 18 18 18 18 18 17 16 15 13 12 12 11 10 10 9 9 9 9 9
17 17 18 18 19 20 20 20 21 21 21 21 21 21 21 21 21 21 22 22 23 23 24 24 24 24 23 23 22 23 23 24 24 24 24 23 22 22 23 24 24 24 23 23 22 22 21 20 19 19 19 19 19 19 18 18 17 16 15 13 13 12 11 10 10 10 9 9 9
18 18 19 20 20 21 21 22 22 22 22 22 22 22 21 21 21 21 22 22 23 23 24 24 24 24 24 23 23 23 24 24 25 25 25 24 23 23 23 24 24 25 24 24 23 23 22 21 20 19 19 19 19 19 19 19 18 17 16 15 14 13 12 11 11 10 10 10 10
18 19 19 20 21 21 22 22 23 23 23 23 23 22 22 22 22 22 22 22 23 23 24 24 24 24 24 24 24 24 24 25 26 26 26 25 24 23 23 24 24 25 25 25 24 24 23 22 21 20 20 20 19 19 19 19 19 18 17 16 15 14 13 12 12 11 11 10 10
18 19 19 20 21 21 22 22 23 24 24 24 24 23 23 23 22 22 22 23 23 23 24 24 24 24 24 25 25 25 25 25 26 26 27 26 26 25 24 24 24 25 26 25 25 24 23 23 22 21 21 20 20 20 19 19 19 19 18 17 16 15 14 13 13 12 11 11 11
19 20 20 21 21 21 22 22 23 24 25 25 25 24 23 23 23 23 23 23 23 24 24 24 24 24 24 25 25 25 25 26 26 26 27 27 27 26 25 24 25 25 26 26 26 25 24 23 23 22 21 21 21 20 20 19 19 19 19 18 17 17 16 15 14 13 12 12 11
21 22 22 22 22 22 22 22 23 24 25 26 25 24 24 23 23 23 23 24 24 24 24 24 24 24 24 25 25 25 25 26 26 27 27 28 28 27 26 25 25 25 26 26 26 26 25 24 23 23 22 22 22 21 20 20 20 19 19 18 18 18 17 16 15 14 13 13 12
21 22 23 23 23 23 23 23 24 25 25 25 25 24 24 24 24 24 24 24 24 24 24 24 24 24 24 25 25 25 25 26 26 27 28 28 28 28 27 26 25 25 26 27 27 27 26 25 24 23 23 23 23 22 21 21 20 19 19 18 19 19 19 18 17 15 14 14 13
21 22 23 23 24 24 24 24 24 24 25 25 24 24 24 24 24 24 24 24 25 25 25 25 25 25 25 25 25 25 25 25 26 27 28 28 28 28 28 27 26 26 26 27 27 27 27 26 25 24 24 24 24 23 22 21 21 20 19 18 18 19 20 20 19 17 16 15 14
21 22 22 23 23 23 23 23 24 24 24 24 24 24 24 24 24 25 25 25 25 25 25 25 25 25 25 25 25 25 25 25 26 27 27 28 28 29 29 28 27 26 26 27 27 28 28 27 26 25 25 25 24 24 23 22 22 21 19 18 18 19 20 21 20 19 17 16 15
20 20 21 21 21 22 22 23 23 23 24 24 24 24 24 24 25 25 25 26 26 26 25 25 25 25 25 25 25 25 25 25 25 26 27 28 28 29 29 28 27 26 26 27 28 28 28 28 27 26 26 25 25 24 24 23 23 22 20 19 18 18 20 21 22 21 19 17 16
17 18 18 19 20 20 21 22 22 23 23 23 23 24 24 24 25 25 26 26 26 26 26 25 25 25 25 26 26 26 26 25 25 26 26 27 28 29 29 29 28 27 27 27 28 29 29 28 28 27 26 26 26 25 24 24 23 23 21 19 18 18 19 21 22 22 21 19 17
16 17 17 18 19 19 20 21 21 22 23 23 23 23 23 24 24 25 26 26 26 26 26 26 25 25 25 25 26 26 26 26 26 26 26 27 28 28 29 29 28 28 27 27 28 29 29 29 28 27 27 27 27 26 25 24 24 23 22 20 18 18 19 20 22 23 22 21 19
Wind_Direction
323 324 326 327 325 322 318 315 313 310 307 305 304 305 308 313 317 321 326 331 336 341 346 348 349 349 348 348 348 349 348 346 341 337 333 332 334 337 342 346 350 353 353 352 350 351 354 3 18 30 37 41 50 72 149 202 216 223 228 230 233 234 235 234 233 232 233 234 235
321 322 324 325 326 324 321 318 315 312 308 306 302 301 302 306 311 315 320 325 330 335 340 344 346 347 347 346 346 347 348 347 343 339 333 329 327 326 328 331 335 340 345 347 346 346 347 350 360 16 31 37 39 43 56 176 211 220 226 229 231 233 235 236 236 235 234 235 236
319 320 321 323 324 324 322 319 316 313 310 307 303 300 300 301 305 309 314 318 323 327 332 338 341 344 345 345 344 345 346 347 345 342 337 332 326 323 321 320 321 324 329 335 339 341 342 343 347 357 14 30 34 35 35 39 191 219 227 231 231 231 232 234 236 237 236 235 235
317 317 318 320 321 322 322 321 318 316 313 309 305 302 299 298 300 303 307 311 315 320 325 330 334 338 340 341 342 343 343 344 344 344 341 337 331 325 320 315 313 311 313 317 325 331 335 337 339 343 352 9 26 33 33 31 35 276 233 236 235 232 231 231 233 235 236 236 235
315 315 316 317 318 320 322 322 320 318 316 313 309 304 300 296 296 297 301 305 309 313 317 322 327 331 334 336 338 339 340 341 341 342 342 341 337 331 324 317 311 306 303 303 307 314 321 327 330 333 336 343 357 19 31 29 24 15 338 277 257 243 235 230 230 231 233 235 236
313 313 314 315 316 318 321 322 322 321 319 316 313 308 302 297 294 293 295 298 302 305 309 313 318 323 326 329 332 335 336 337 338 339 340 340 339 336 330 322 314 307 301 296 294 296 302 310 317 321 323 327 332 341 356 13 10 353 338 331 323 297 260 240 232 230 230 231 233
312 312 313 314 315 317 319 320 322 322 322 320 317 311 305 300 294 291 291 292 295 298 301 305 309 314 318 322 326 329 331 333 334 335 336 337 338 338 335 329 321 313 304 296 290 287 287 291 298 304 310 313 316 319 324 337 340 323 311 309 320 329 327 303 259 239 232 230 230
312 312 312 313 315 316 318 319 321 323 323 323 320 315 309 303 297 291 289 288 289 292 294 297 301 305 309 313 317 321 324 326 328 330 331 333 335 336 336 334 329 320 311 301 291 284 280 280 282 288 293 299 301 303 306 312 316 304 286 281 291 303 318 333 336 307 259 240 233
311 311 312 313 314 316 317 319 320 322 323 323 322 319 314 308 300 294 289 286 286 287 289 292 294 298 301 305 308 312 315 318 321 324 326 328 330 332 334 335 333 327 319 308 298 287 280 276 275 277 281 286 289 291 293 295 294 289 275 266 271 283 293 305 325 340 338 304 257
310 310 311 312 313 315 317 318 319 321 322 323 322 320 316 312 305 298 292 287 285 285 286 288 290 292 295 297 300 303 307 310 313 316 319 321 324 327 329 332 333 331 325 316 305 294 283 275 272 272 274 277 280 283 283 283 281 275 268 260 255 264 277 285 295 313 336 346 333
309 309 309 310 311 314 315 317 318 320 321 321 321 320 317 314 310 304 298 291 287 284 284 285 287 288 290 291 293 295 299 302 305 308 311 315 318 320 323 326 329 330 328 321 312 301 290 279 272 270 270 272 274 276 277 276 272 267 259 254 248 248 255 268 279 288 304 327 343
307 307 307 307 309 311 313 315 317 318 319 319 319 318 317 315 313 310 305 299 291 286 284 284 285 286 287 287 288 290 292 295 298 301 304 307 310 314 317 320 323 326 326 323 318 309 298 286 276 270 267 268 269 271 272 272 270 264 256 248 242 236 234 242 259 274 283 295 318
305 304 304 305 307 309 311 313 315 316 317 317 317 316 316 315 314 313 311 307 300 292 287 284 283 283 284 285 285 286 287 290 292 294 297 299 303 306 310 314 317 320 322 322 319 313 305 295 284 274 268 266 266 267 269 270 269 265 258 249 239 231 227 227 232 250 268 278 291
302 302 302 303 304 307 309 312 313 314 315 315 315 314 314 314 315 315 315 313 308 301 293 288 284 282 282 282 282 283 284 285 287 289 291 293 296 299 303 307 310 313 316 318 317 315 309 301 292 282 273 267 264 264 266 268 268 267 263 255 244 234 228 226 224 229 243 260 273
300 300 300 301 303 305 307 309 311 312 313 313 313 313 313 314 314 315 316 315 313 308 302 294 288 283 281 280 281 281 281 282 283 284 286 288 290 292 296 299 303 307 310 312 313 313 310 305 298 290 281 272 266 264 264 266 267 268 266 262 255 246 236 230 226 225 227 238 255
299 299 299 300 301 303 306 308 309 310 311 311 312 312 313 313 314 314 315 316 315 312 309 302 294 287 283 280 279 279 279 278 279 280 282 284 286 288 290 293 296 300 304 307 309 310 309 306 302 296 288 280 272 267 264 264 265 267 267 266 262 256 248 240 233 229 228 230 240
300 300 300 300 301 303 305 306 308 309 309 309 310 311 312 312 312 313 314 314 314 313 312 308 301 294 287 282 279 278 277 277 277 277 278 280 282 283 285 287 290 294 298 301 304 305 306 304 302 299 293 286 279 272 267 264 264 264 266 266 265 262 258 251 243 237 233 232 235
303 303 303 302 302 303 304 305 306 307 307 308 308 309 310 310 310 311 311 312 312 312 312 310 307 301 294 286 281 278 277 276 276 275 276 277 278 280 281 283 285 289 292 295 299 301 302 302 301 299 296 291 285 278 272 267 264 263 263 264 264 264 262 258 253 247 242 238 236
305 306 306 305 304 304 304 304 305 305 305 306 306 306 306 307 308 308 309 310 310 310 310 310 309 307 301 294 286 280 276 275 274 274 274 274 275 276 278 279 281 283 286 290 293 296 298 299 299 298 296 293 288 283 277 272 267 264 262 261 261 262 262 262 259 255 251 246 240
305 308 309 309 308 307 306 305 305 304 304 304 304 304 304 304 305 306 307 307 308 309 309 309 310 309 306 301 293 284 278 275 273 272 272 271 272 273 274 276 277 279 281 284 288 291 294 296 297 296 295 293 290 286 282 276 271 267 264 261 260 259 260 260 260 259 257 253 247
302 306 309 310 310 310 309 308 307 306 304 303 302 302 301 302 303 303 304 305 306 307 308 308 308 308 307 304 299 290 282 276 273 271 270 270 270 270 271 273 274 276 277 279 282 286 290 292 294 294 293 292 290 288 284 280 275 270 266 263 260 258 257 257 257 258 258 257 254
298 302 305 308 310 311 311 311 310 308 306 304 302 301 300 300 300 301 301 302 304 305 306 307 307 306 306 305 302 296 288 280 275 271 270 269 268 268 269 269 271 272 273 275 278 281 285 288 290 291 291 291 289 287 285 281 277 273 269 265 262 259 256 254 253 253 254 254 255
295 298 301 304 307 309 311 311 311 310 309 307 304 302 301 299 299 299 299 300 301 302 303 304 304 304 304 303 302 300 294 286 279 274 270 269 267 267 266 266 267 268 270 271 274 277 281 284 287 289 289 289 288 286 284 282 278 275 270 266 263 260 258 255 252 250 249 250 251
292 295 297 300 302 305 307 309 310 310 310 308 306 304 302 300 299 298 298 298 298 299 300 300 301 301 301 301 300 300 298 292 285 278 272 269 267 265 264 264 264 265 266 268 270 273 276 280 283 286 287 287 286 285 283 281 279 276 272 268 265 261 259 256 252 250 248 247 247
289 292 294 297 299 301 303 305 307 308 308 307 306 305 303 301 299 298 297 297 296 296 296 297 297 297 298 298 298 299 298 295 290 283 276 271 267 265 264 262 262 263 264 265 267 268 271 275 279 282 284 285 286 285 283 282 280 277 275 271 267 263 260 258 255 252 249 247 246
286 288 291 294 297 299 301 302 303 304 305 304 304 304 303 302 300 299 298 297 295 294 294 293 293 294 295 296 296 296 296 296 293 287 280 273 268 265 264 262 261 261 262 262 263 265 267 270 274 277 281 283 283 283 283 282 280 279 276 274 270 266 262 260 259 256 253 250 248
283 286 289 292 295 297 299 300 301 302 302 302 302 302 302 301 300 299 298 296 295 293 292 291 290 290 291 292 292 293 293 293 292 289 283 276 270 266 264 262 261 260 260 260 261 262 263 266 269 273 276 279 281 281 281 280 279 278 276 275 273 270 266 262 260 259 257 254 252
282 285 288 291 293 296 297 299 300 300 300 300 300 300 300 299 299 298 297 296 295 293 291 290 289 288 288 288 289 289 290 290 290 289 285 279 273 268 264 262 261 260 259 259 259 259 260 262 265 268 272 275 278 279 280 279 278 277 275 273 272 271 268 264 261 259 259 259 257
282 284 287 290 292 294 295 296 297 298 298 299 299 298 298 297 297 297 296 295 294 293 291 289 288 287 286 286 286 286 287 288 288 288 286 282 276 270 265 262 260 259 258 258 258 257 258 259 261 265 268 272 275 277 278 278 277 275 273 271 270 269 268 266 263 260 260 260 259
282 284 286 288 290 291 292 292 293 294 295 296 296 296 296 296 296 296 296 295 294 293 291 290 288 286 285 284 284 284 284 285 285 286 285 283 278 272 267 263 260 258 257 257 256 256 256 256 258 261 264 268 271 274 275 276 275 274 272 270 268 267 266 265 263 261 260 259 259
284 284 285 286 287 287 287 288 289 290 292 293 294 294 294 294 294 295 295 294 293 292 291 290 288 287 285 284 283 282 282 282 283 283 283 283 280 275 269 264 260 258 256 256 255 255 254 254 255 257 260 263 267 270 273 274 274 273 271 269 267 265 264 263 261 260 259 259 259
291 290 288 287 286 285 285 285 285 286 288 290 291 292 292 292 292 293 293 294 293 292 291 290 288 287 285 283 282 281 280 280 281 281 282 281 280 276 271 265 261 258 256 255 254 253 253 253 253 254 256 259 262 266 269 272 273 273 271 269 267 265 262 260 259 258 257 257 258
301 299 296 294 291 289 287 286 285 285 286 286 288 289 289 290 290 291 292 293 293 292 291 289 288 286 285 283 282 281 280 279 279 279 280 280 279 277 273 268 263 259 256 254 253 252 252 251 251 251 253 256 258 261 264 268 271 272 272 271 269 266 263 260 258 256 255 255 255
305 304 302 299 297 295 293 291 289 287 285 284 284 285 286 287 288 289 290 291 292 292 291 290 288 286 285 283 282 281 280 279 278 278 279 279 279 277 275 271 266 261 257 254 252 251 250 250 249 249 250 252 255 257 259 263 266 269 271 271 270 268 265 261 258 255 253 253 253
304 303 301 300 298 296 294 293 290 287 283 280 280 281 283 284 285 286 288 289 290 291 291 290 289 287 285 283 282 281 280 279 278 278 278 278 278 277 276 273 268 263 258 255 252 251 249 248 247 247 247 249 251 253 255 258 262 265 268 270 271 271 269 265 261 257 254 252 252
300 299 298 296 295 293 291 289 286 282 279 277 277 278 279 280 281 283 285 286 288 289 290 290 289 287 285 284 282 281 280 279 279 278 278 278 277 277 275 273 270 265 259 255 253 250 249 247 246 245 245 246 248 250 252 255 257 260 264 267 271 272 272 270 266 261 256 253 251
297 296 294 292 290 288 286 283 281 278 276 275 275 275 275 276 278 279 281 283 285 287 289 289 289 287 286 284 282 281 280 279 278 278 277 277 276 276 275 273 270 266 261 256 253 251 248 247 246 244 244 244 245 247 249 251 253 256 259 263 267 272 274 274 271 266 260 255 251
295 293 291 289 287 285 283 281 280 278 277 275 274 273 273 273 274 276 278 280 282 284 287 288 288 288 286 284 282 280 279 278 277 277 277 277 276 276 275 274 271 267 262 257 253 251 249 247 245 244 243 243 244 245 246 248 250 252 254 257 262 268 273 275 274 271 265 259 254
294 292 291 289 288 286 285 283 281 279 278 276 274 273 271 271 271 272 274 276 279 281 284 286 287 287 286 284 282 280 278 277 277 276 276 276 276 275 275 273 271 268 263 258 254 251 249 247 245 244 243 243 243 243 244 246 248 249 250 252 257 263 270 274 275 274 270 264 258
297 296 295 294 293 291 289 286 284 283 281 279 277 275 272 271 270 270 271 273 275 278 281 283 285 286 285 283 281 279 277 276 275 275 275 276 275 275 274 273 271 268 264 258 254 251 249 247 245 244 243 243 243 242 242 243 245 246 247 247 251 258 265 271 274 275 273 269 262
305 304 302 300 298 296 294 291 289 287 285 283 281 278 275 272 270 269 269 271 272 274 277 280 282 283 283 281 280 278 276 275 275 274 274 274 275 275 274 273 271 269 264 259 255 251 249 247 245 244 243 243 243 242 241 241 242 244 244 244 246 252 260 267 271 273 272 270 266